[[{"header":{"parameterUnit":"m.s-1","parameterCategory":1,"la1":30.2991,"la2":30.254,"lo1":-89.0895,"lo2":-89.0444,"dy":0.0017,"dx":0.0017,"nx":28,"ny":28,"refTime":"2023-04-27T21:00:00:Z","depth":0,"parameterNumber":2,"parameterNumberName":"U-component_of_WINDS"},"data":[0,0,0,0,0,0,0,0,0,0,0,0,0,0,0,0,0,0,0,0,0,0,0,0,0,0,0,0,0,0,0,0,0,0,0,0,0,0,0,0,0,0,0,0,0,0,0,0,0,0,0,0,0,0,0,0,0,0,-3.9431,-3.9433,0,-3.9572,-3.9574,-3.9575,-3.9609,-3.9608,-3.9607,-3.9606,-3.9746,-3.975,-3.9755,0,0,0,0,0,0,0,0,0,0,0,0,0,-3.9186,-3.9191,-3.9431,-3.9433,-3.9435,-3.9572,-3.9574,-3.9576,-3.9609,-3.9608,-3.9606,-3.9605,-3.9744,-3.975,-3.9755,0,0,0,0,0,0,0,0,0,0,0,0,0,-3.9306,-3.9192,-3.9431,-3.9468,-3.9472,-3.9571,-3.9574,-3.9576,-3.9609,-3.9608,-3.9606,-3.9605,-3.9742,-3.9749,-3.9756,-3.9826,0,0,-3.9777,-3.978,0,0,0,0,0,0,0,0,-3.9299,-3.9315,-3.946,-3.9465,-3.9471,-3.9571,-3.9539,-3.966,-3.9609,-3.9557,-3.9606,-3.9604,-3.9688,-3.97,-3.9729,-3.9833,-3.9839,-3.9777,-3.9782,-3.9785,-3.9787,0,0,0,0,0,0,0,-3.9291,-3.9309,-3.9487,-3.9462,-3.9469,-3.9476,-3.9491,-3.9562,-3.9629,-3.9561,-3.9564,-3.9581,-3.9691,-3.9722,-3.9733,-3.9841,-3.9777,-3.9783,-3.9788,-3.979,-4.001,-4.0012,0,0,0,0,0,0,-3.9277,-3.9302,-3.9482,-3.9491,-3.938,-3.9481,-3.9499,-3.954,-3.9628,-3.964,-3.9582,-3.9582,-3.9711,-3.9724,-3.9738,-3.9826,-3.9785,-3.9791,-3.9795,-4.0009,-4.0011,-4.0013,0,0,0,0,0,0,-3.9272,-3.9293,-3.9476,-3.9397,-3.9421,-3.9487,-3.9534,-3.9544,-3.9575,-3.9644,-3.9655,-3.9602,-3.9711,-3.9728,-3.9805,-3.9831,-3.9794,-3.98,-4.0007,-4.0009,-4.0012,-4.0003,0,0,0,0,0,0,-3.9264,-3.9291,-3.9319,-3.9398,-3.9426,-3.9542,-3.9535,-3.9548,-3.9588,-3.9589,-3.9665,-3.9677,-3.9711,-3.9794,-3.9811,-3.984,-3.9806,-4.0004,-4.0008,-4.0011,-4.0002,-4.0005,-4.0009,0,0,0,0,0,-3.9256,-3.931,-3.932,-3.9342,-3.9463,-3.9543,-3.9559,-3.9599,-3.959,-3.9618,-3.9662,-3.9674,-3.9826,-3.9802,-3.9821,-3.9853,-4.0003,-4.0007,-4.0011,-4.0,-4.0005,-4.0009,0,0,0,0,0,0,-3.923,-3.9321,-3.9333,-3.9415,-3.9472,-3.9549,-3.9586,-3.9602,-3.9661,-3.966,-3.9705,-3.9722,-3.9796,-3.9832,-3.9803,-3.9926,-3.9914,-3.9922,-3.9899,-3.9904,-3.9908,-3.9897,-3.9811,0,0,0,0,0,-3.9235,-3.9294,-3.937,-3.9434,-3.9462,-3.9519,-3.9556,-3.9582,-3.9642,-3.9665,-3.9715,-3.9771,-3.9831,-3.987,-3.9929,-4.0008,-4.0024,-4.0039,-4.0042,-4.0045,-4.0051,-4.0095,-4.0102,-4.0025,-4.0025,-4.0025,0,0,-3.9243,-3.93,-3.9335,-3.9431,-3.9478,-3.9537,-3.9539,-3.9602,-3.9646,-3.9674,-3.975,-3.9788,-3.9854,-3.9932,-3.9968,-3.9964,-4.0076,-4.005,-4.0051,-4.0056,-4.0099,-4.0107,-4.0113,-4.0028,-4.0027,-4.0027,0,0,-3.9289,-3.9339,-3.9398,-3.9446,-3.9518,-3.9555,-3.957,-3.9645,-3.9672,-3.975,-3.9772,-3.9825,-3.9928,-3.9974,-4.0011,-4.0076,-4.0089,-4.0094,-4.0112,-4.0155,-4.0161,-4.0166,-4.0189,-4.0196,-4.01,-4.01,-4.01,0,-3.929,-3.9382,-3.9426,-3.9489,-3.953,-3.9561,-3.9621,-3.9664,-3.975,-3.9778,-3.9772,-3.9903,-3.995,-4.0039,-4.0055,-4.0084,-4.0101,-4.0085,-4.0156,-4.0162,-4.0168,-4.019,-4.0199,-4.01,-4.01,-4.01,-4.01,0,-3.938,-3.9443,-3.9483,-3.9568,-3.9614,-3.9674,-3.9726,-3.9767,-3.979,-3.9828,-3.9905,-3.9963,-4.0034,-4.0058,-4.0079,-4.015,-4.0145,-4.0148,-4.0136,-4.0175,-4.0196,-4.0205,-4.0101,-4.0101,-4.01,-4.01,0,0,-3.9412,-3.9522,-3.9536,-3.9575,-3.9657,-3.9706,-3.9768,-3.984,-3.9874,-3.9933,-3.9985,-4.0073,-4.0076,-4.0118,-4.0145,-4.0183,-4.023,-4.0181,-4.0183,-4.0187,-4.0311,-4.0307,-4.0316,-4.024,-4.0242,-4.0243,-4.0305,0,-3.9467,-3.9581,-3.9623,-3.9715,-3.9774,-3.9805,-3.9859,-3.9914,-3.9952,-4.0006,-4.0047,-4.0108,-4.0108,-4.0134,-4.0172,-4.0216,-4.0255,-4.0212,-4.0288,-4.029,-4.0269,-4.0328,-4.0324,-4.0379,-4.0313,-4.0315,-4.0316,0,-3.9547,-3.9609,-3.9707,-3.9783,-3.9809,-3.9857,-3.9927,-3.9979,-4.0042,-4.0067,-4.0115,-4.014,-4.0205,-4.0191,-4.0281,-4.0251,-4.0284,-4.0311,-4.0314,-4.0321,-4.0304,-4.0335,-4.0398,-4.0406,-4.033,-4.0329,-4.0328,0,-3.9559,-3.9667,-3.9741,-3.9773,-3.9864,-3.9896,-3.9935,-3.9998,-4.0038,-4.0099,-4.0126,-4.0192,-4.0228,-4.0279,-4.0321,-4.0307,-4.0407,-4.0396,-4.0428,-4.0427,-4.0446,-4.0444,-4.0514,-4.047,-4.0469,-4.0469,-4.0469,0,-3.9616,-3.9675,-3.9748,-3.9792,-3.9859,-3.9907,-3.9971,-4.0012,-4.0067,-4.012,-4.015,-4.0198,-4.0252,-4.0307,-4.034,-4.0409,-4.0425,-4.0446,-4.0454,-4.0443,-4.044,-4.0464,-4.0461,-4.0472,-4.0471,-4.0471,-4.047,0,-3.964,-3.9692,-3.9773,-3.9853,-3.9875,-3.992,-3.9988,-4.0032,-4.0072,-4.0137,-4.0155,-4.0217,-4.0283,-4.0331,-4.0416,-4.0439,-4.0512,-4.0521,-4.0491,-4.0495,-4.0523,-4.052,-4.061,-4.0624,-4.0571,-4.0572,-4.0572,0,-3.9672,-3.9719,-3.9804,-3.9843,-3.9882,-3.9943,-3.9985,-4.0034,-4.0076,-4.0153,-4.0188,-4.0257,-4.0314,-4.0418,-4.047,-4.0535,-4.0545,-4.0572,-4.0554,-4.0542,-4.0544,-4.054,-4.0545,-4.0574,-4.0574,-4.0574,-4.0575,0,-3.9724,-3.9747,-3.9808,-3.9878,-3.9929,-3.9985,-4.0043,-4.0072,-4.0131,-4.0177,-4.0246,-4.0291,-4.0379,-4.0446,-4.0517,-4.0556,-4.0574,-4.058,-4.0591,-4.0579,-4.0559,-4.0569,-4.0497,-4.0577,-4.0577,-4.0577,-4.0577,-4.0577,-3.9752,-3.9795,-3.9863,-3.9929,-3.9978,-4.0031,-4.0077,-4.0123,-4.0182,-4.0259,-4.0284,-4.0355,-4.0418,-4.0515,-4.0555,-4.061,-4.0609,-4.0625,-4.0628,-4.0631,-4.063,-4.0552,-4.0624,-4.0624,-4.0624,-4.0624,-4.0624,0,-3.9805,-3.985,-3.9911,-3.9991,-4.0044,-4.006,-4.0124,-4.0166,-4.0229,-4.0287,-4.0344,-4.0423,-4.0489,-4.0547,-4.0615,-4.0649,-4.0659,-4.0665,-4.0662,-4.067,-4.0628,-4.0611,-4.0655,-4.0655,-4.0655,-4.0655,-4.0655,-4.0655,-3.9838,-3.9911,-3.9943,-4.004,-4.0085,-4.0156,-4.0192,-4.0241,-4.0287,-4.0375,-4.0431,-4.0469,-4.0526,-4.0599,-4.066,-4.0675,-4.0699,-4.0702,-4.0719,-4.0677,-4.0673,-4.067,-4.0655,-4.0707,-4.0707,-4.0757,-4.0758,-4.0758]},{"header":{"parameterUnit":"m.s-1","parameterCategory":1,"la1":30.2991,"la2":30.254,"lo1":-89.0895,"lo2":-89.0444,"dy":0.0017,"dx":0.0017,"nx":28,"ny":28,"refTime":"2023-04-27T21:00:00:Z","depth":0,"parameterNumber":3,"parameterNumberName":"V-component_of_WINDS"},"data":[0,0,0,0,0,0,0,0,0,0,0,0,0,0,0,0,0,0,0,0,0,0,0,0,0,0,0,0,0,0,0,0,0,0,0,0,0,0,0,0,0,0,0,0,0,0,0,0,0,0,0,0,0,0,0,0,0,0,0.7,0.7,0,0.6999,0.6999,0.6999,0.7033,0.7034,0.7035,0.7036,0.7029,0.7028,0.7026,0,0,0,0,0,0,0,0,0,0,0,0,0,0.7031,0.7031,0.7,0.7,0.7,0.6999,0.6999,0.6999,0.7033,0.7034,0.7035,0.7036,0.7029,0.7028,0.7026,0,0,0,0,0,0,0,0,0,0,0,0,0,0.7022,0.703,0.7,0.7017,0.7019,0.6999,0.6999,0.6999,0.7032,0.7034,0.7035,0.7037,0.7029,0.7028,0.7026,0.6988,0,0,0.7021,0.7021,0,0,0,0,0,0,0,0,0.7023,0.7021,0.7015,0.7016,0.7018,0.7018,0.7007,0.6995,0.7032,0.7027,0.7036,0.7037,0.7023,0.7022,0.7019,0.6988,0.6988,0.7021,0.702,0.702,0.7019,0,0,0,0,0,0,0,0.7023,0.7021,0.7,0.7015,0.7016,0.7024,0.7025,0.7005,0.7017,0.7028,0.703,0.703,0.7024,0.702,0.7019,0.6988,0.7021,0.702,0.7019,0.7018,0.6929,0.6928,0,0,0,0,0,0,0.7022,0.7022,0.7,0.7,0.7024,0.7023,0.7023,0.7016,0.7018,0.7019,0.7029,0.7031,0.7022,0.7021,0.7019,0.6976,0.702,0.7018,0.7017,0.693,0.6929,0.6927,0,0,0,0,0,0,0.7023,0.702,0.7,0.7011,0.701,0.7021,0.7013,0.7015,0.7011,0.7018,0.702,0.7022,0.7023,0.7021,0.6997,0.6976,0.7017,0.7016,0.6932,0.693,0.6928,0.6889,0,0,0,0,0,0,0.7023,0.702,0.7005,0.7011,0.7009,0.6978,0.7011,0.7014,0.7009,0.7013,0.7013,0.7014,0.7024,0.6999,0.6995,0.6975,0.7015,0.6934,0.6931,0.6929,0.6892,0.6885,0.688,0,0,0,0,0,0.7024,0.6993,0.7005,0.7002,0.6991,0.6977,0.6975,0.6989,0.7007,0.6993,0.6998,0.7014,0.698,0.6996,0.6992,0.6971,0.6935,0.6932,0.6929,0.6894,0.6887,0.688,0,0,0,0,0,0,0.6981,0.6993,0.7007,0.6976,0.6976,0.6982,0.6964,0.698,0.6972,0.6976,0.6992,0.6992,0.6965,0.6966,0.6984,0.6936,0.6961,0.6956,0.6936,0.6929,0.6923,0.6922,0.7013,0,0,0,0,0,0.6969,0.6957,0.6968,0.694,0.6939,0.6952,0.6946,0.6958,0.6957,0.6956,0.6959,0.6957,0.6946,0.6938,0.6928,0.6894,0.6894,0.6877,0.6871,0.6867,0.6862,0.6846,0.6838,0.6917,0.6917,0.6917,0,0,0.6942,0.6947,0.6938,0.6932,0.6932,0.6919,0.6951,0.6935,0.6926,0.6953,0.6931,0.6934,0.6932,0.6903,0.6891,0.6903,0.6841,0.6862,0.6859,0.6856,0.6842,0.6834,0.6827,0.6915,0.6915,0.6915,0,0,0.6885,0.6888,0.6866,0.6868,0.687,0.688,0.6875,0.688,0.6884,0.6863,0.6884,0.6873,0.6853,0.6852,0.6849,0.6798,0.6812,0.6794,0.6762,0.6746,0.674,0.6735,0.6716,0.671,0.679,0.679,0.679,0,0.685,0.6833,0.6852,0.6836,0.6833,0.6862,0.6839,0.6839,0.6837,0.6834,0.6849,0.6828,0.6828,0.68,0.6789,0.6785,0.678,0.6792,0.674,0.6735,0.673,0.6712,0.6706,0.6788,0.6788,0.6788,0.6789,0,0.679,0.6778,0.676,0.676,0.6756,0.6736,0.6753,0.6746,0.676,0.6768,0.6747,0.675,0.6743,0.6738,0.6749,0.6712,0.672,0.6737,0.6762,0.672,0.6704,0.6697,0.6785,0.6786,0.6786,0.6787,0,0,0.6701,0.6717,0.671,0.6712,0.6719,0.6709,0.6693,0.6688,0.6682,0.6681,0.6667,0.6653,0.667,0.6666,0.6679,0.6665,0.6626,0.6684,0.6684,0.6672,0.6586,0.6571,0.6563,0.6637,0.6636,0.6635,0.6586,0,0.6646,0.6619,0.6639,0.6608,0.6598,0.6627,0.6613,0.6616,0.6624,0.6616,0.6625,0.6615,0.6639,0.6637,0.6625,0.6633,0.6608,0.6637,0.6623,0.6622,0.662,0.6555,0.6539,0.6492,0.658,0.6579,0.6578,0,0.6577,0.6577,0.6546,0.6558,0.6555,0.6541,0.654,0.6533,0.6537,0.6545,0.6544,0.6561,0.6546,0.6573,0.6552,0.6571,0.6568,0.6571,0.657,0.6566,0.6595,0.6549,0.6478,0.647,0.6568,0.6569,0.657,0,0.6515,0.6507,0.6488,0.6489,0.6503,0.6493,0.6498,0.6505,0.6502,0.6501,0.6499,0.6496,0.6493,0.6491,0.6507,0.6525,0.6484,0.6512,0.6489,0.6488,0.6476,0.6476,0.6401,0.6477,0.6477,0.6477,0.6477,0,0.645,0.643,0.6461,0.6448,0.6427,0.6451,0.6429,0.6438,0.6444,0.6434,0.646,0.645,0.6473,0.6466,0.6478,0.646,0.6458,0.6463,0.6466,0.646,0.6459,0.6455,0.6458,0.6475,0.6476,0.6476,0.6476,0,0.6375,0.6395,0.6376,0.6394,0.6398,0.6381,0.6395,0.6385,0.6398,0.6385,0.6383,0.6402,0.6395,0.6413,0.6407,0.6416,0.6389,0.6398,0.6388,0.639,0.6365,0.6367,0.6283,0.6273,0.6357,0.6356,0.6356,0,0.6331,0.6317,0.6334,0.633,0.6335,0.6328,0.6327,0.6351,0.6348,0.6356,0.6344,0.6341,0.6338,0.6326,0.6338,0.6335,0.6343,0.6315,0.6342,0.6337,0.6342,0.6341,0.634,0.6307,0.6306,0.6306,0.6305,0,0.6251,0.6263,0.626,0.6262,0.626,0.6262,0.6266,0.6261,0.6288,0.6283,0.6278,0.6277,0.6274,0.6269,0.627,0.6275,0.6294,0.6297,0.6291,0.6283,0.6277,0.6279,0.637,0.6298,0.6298,0.6299,0.6299,0.63,0.6189,0.6179,0.619,0.6187,0.6194,0.6198,0.6189,0.6203,0.62,0.62,0.6216,0.6208,0.6216,0.622,0.6223,0.6217,0.623,0.6221,0.6219,0.6216,0.6212,0.6281,0.6217,0.6218,0.6218,0.6218,0.6218,0,0.6109,0.6119,0.6117,0.6123,0.6121,0.6144,0.615,0.6147,0.614,0.6147,0.6146,0.6141,0.6139,0.6153,0.6152,0.6145,0.6153,0.6143,0.6143,0.6144,0.62,0.6205,0.6136,0.6136,0.6136,0.6136,0.6136,0.6136,0.6067,0.6051,0.6065,0.6053,0.6064,0.6057,0.6059,0.6064,0.607,0.6064,0.6063,0.6074,0.6084,0.6085,0.6084,0.6089,0.6086,0.6073,0.608,0.6132,0.6139,0.6147,0.6151,0.6072,0.6072,0.6023,0.6023,0.6022]}]]